Time,TemperatureF,DewpointF,PressureIn,WindDirection,WindDirectionDegrees,WindSpeedMPH,WindSpeedGustMPH,Humidity,HourlyPrecipIn,Conditions,Clouds,dailyrainin,SoftwareType,DateUTC
2013-07-22 00:03:00,62.0,61.0,29.96,South,184,0.0,0.0,97,0.00,,,0.00,weatherlink.com 1.10,2013-07-22 04:03:00,
2013-07-22 00:18:00,61.5,61.0,29.97,South,184,0.0,0.0,97,0.00,,,0.00,weatherlink.com 1.10,2013-07-22 04:18:00,
2013-07-22 00:33:00,61.2,60.0,29.96,South,185,0.0,0.0,97,0.00,,,0.00,weatherlink.com 1.10,2013-07-22 04:33:00,
2013-07-22 00:48:00,61.0,60.0,29.96,South,183,0.0,0.0,97,0.00,,,0.00,weatherlink.com 1.10,2013-07-22 04:48:00,
2013-07-22 01:03:00,60.3,60.0,29.96,South,184,0.0,0.0,97,0.00,,,0.00,weatherlink.com 1.10,2013-07-22 05:03:00,
2013-07-22 01:18:00,59.8,59.0,29.96,South,184,0.0,0.0,97,0.00,,,0.00,weatherlink.com 1.10,2013-07-22 05:18:00,
2013-07-22 01:33:00,59.9,59.0,29.96,South,185,0.0,0.0,97,0.00,,,0.00,weatherlink.com 1.10,2013-07-22 05:33:00,
2013-07-22 01:48:00,60.1,60.0,29.96,South,183,0.0,0.0,98,0.00,,,0.00,weatherlink.com 1.10,2013-07-22 05:48:00,
2013-07-22 02:03:00,59.7,59.0,29.95,South,185,0.0,0.0,97,0.00,,,0.00,weatherlink.com 1.10,2013-07-22 06:03:00,
2013-07-22 02:18:00,59.5,59.0,29.95,South,184,0.0,0.0,98,0.00,,,0.00,weatherlink.com 1.10,2013-07-22 06:18:00,
2013-07-22 02:33:00,59.3,59.0,29.95,South,184,0.0,0.0,98,0.00,,,0.00,weatherlink.com 1.10,2013-07-22 06:33:00,
2013-07-22 02:48:00,59.2,59.0,29.95,South,185,0.0,0.0,98,0.00,,,0.00,weatherlink.com 1.10,2013-07-22 06:48:00,
2013-07-22 03:03:00,59.1,59.0,29.94,South,183,0.0,0.0,98,0.00,,,0.00,weatherlink.com 1.10,2013-07-22 07:03:00,
2013-07-22 03:18:00,58.8,58.0,29.94,South,185,0.0,0.0,98,0.00,,,0.00,weatherlink.com 1.10,2013-07-22 07:18:00,
2013-07-22 03:33:00,58.8,58.0,29.95,South,185,0.0,0.0,98,0.00,,,0.00,weatherlink.com 1.10,2013-07-22 07:33:00,
2013-07-22 03:48:00,58.6,58.0,29.95,South,184,0.0,0.0,98,0.00,,,0.00,weatherlink.com 1.10,2013-07-22 07:48:00,
2013-07-22 04:03:00,58.4,58.0,29.95,South,184,0.0,0.0,98,0.00,,,0.00,weatherlink.com 1.10,2013-07-22 08:03:00,
2013-07-22 04:18:00,58.2,58.0,29.95,South,185,0.0,0.0,98,0.00,,,0.00,weatherlink.com 1.10,2013-07-22 08:18:00,
2013-07-22 04:34:00,57.8,57.0,29.95,South,184,0.0,0.0,98,0.00,,,0.00,weatherlink.com 1.10,2013-07-22 08:34:00,
2013-07-22 04:49:00,58.3,58.0,29.96,South,183,0.0,0.0,98,0.00,,,0.00,weatherlink.com 1.10,2013-07-22 08:49:00,
2013-07-22 05:04:00,57.5,57.0,29.96,South,183,0.0,0.0,98,0.00,,,0.00,weatherlink.com 1.10,2013-07-22 09:04:00,
2013-07-22 05:19:00,57.4,57.0,29.97,South,183,0.0,0.0,98,0.00,,,0.00,weatherlink.com 1.10,2013-07-22 09:19:00,
2013-07-22 05:34:00,57.7,57.0,29.97,South,183,0.0,0.0,98,0.00,,,0.00,weatherlink.com 1.10,2013-07-22 09:34:00,
2013-07-22 05:49:00,58.4,58.0,29.97,South,183,0.0,0.0,98,0.00,,,0.00,weatherlink.com 1.10,2013-07-22 09:49:00,
2013-07-22 06:04:00,59.3,59.0,29.97,South,185,0.0,0.0,98,0.00,,,0.00,weatherlink.com 1.10,2013-07-22 10:04:00,
2013-07-22 06:19:00,59.8,59.0,29.97,South,185,0.0,0.0,98,0.00,,,0.00,weatherlink.com 1.10,2013-07-22 10:19:00,
2013-07-22 06:34:00,61.2,61.0,29.97,South,185,0.0,0.0,98,0.00,,,0.00,weatherlink.com 1.10,2013-07-22 10:34:00,
2013-07-22 06:49:00,62.3,62.0,29.98,West,274,0.0,3.0,98,0.00,,,0.00,weatherlink.com 1.10,2013-07-22 10:49:00,
2013-07-22 07:04:00,62.8,62.0,29.98,WSW,239,0.0,2.0,98,0.00,,,0.00,weatherlink.com 1.10,2013-07-22 11:04:00,
2013-07-22 07:19:00,63.5,63.0,29.97,NE,43,0.0,3.0,98,0.00,,,0.00,weatherlink.com 1.10,2013-07-22 11:19:00,
2013-07-22 07:34:00,63.9,63.0,29.97,West,259,0.0,1.0,98,0.00,,,0.00,weatherlink.com 1.10,2013-07-22 11:34:00,
2013-07-22 07:49:00,64.0,64.0,29.98,NW,321,0.0,0.0,98,0.00,,,0.00,weatherlink.com 1.10,2013-07-22 11:49:00,
2013-07-22 08:04:00,64.5,64.0,29.98,West,259,0.0,0.0,98,0.00,,,0.00,weatherlink.com 1.10,2013-07-22 12:04:00,
2013-07-22 08:19:00,64.7,64.0,29.98,NE,54,0.0,0.0,98,0.00,,,0.00,weatherlink.com 1.10,2013-07-22 12:19:00,
2013-07-22 08:34:00,65.3,65.0,29.98,NNW,328,0.0,0.0,98,0.00,,,0.00,weatherlink.com 1.10,2013-07-22 12:34:00,
2013-07-22 08:49:00,65.9,65.0,29.98,NW,325,0.0,0.0,98,0.00,,,0.00,weatherlink.com 1.10,2013-07-22 12:49:00,
2013-07-22 09:04:00,65.8,65.0,29.98,SE,129,1.0,3.0,97,0.00,,,0.00,weatherlink.com 1.10,2013-07-22 13:04:00,
2013-07-22 09:19:00,66.3,66.0,29.98,SSE,160,0.0,2.0,97,0.00,,,0.00,weatherlink.com 1.10,2013-07-22 13:19:00,
2013-07-22 09:34:00,66.8,66.0,29.99,ESE,117,0.0,3.0,96,0.00,,,0.00,weatherlink.com 1.10,2013-07-22 13:34:00,
2013-07-22 09:49:00,66.8,65.0,29.99,ESE,119,3.0,3.0,95,0.00,,,0.00,weatherlink.com 1.10,2013-07-22 13:49:00,
2013-07-22 10:04:00,66.7,65.0,29.99,SSW,203,0.0,4.0,95,0.00,,,0.00,weatherlink.com 1.10,2013-07-22 14:04:00,
2013-07-22 10:19:00,67.1,66.0,30.00,ESE,115,1.0,4.0,95,0.00,,,0.00,weatherlink.com 1.10,2013-07-22 14:19:00,
2013-07-22 10:34:00,67.1,66.0,30.00,ESE,114,1.0,3.0,95,0.00,,,0.00,weatherlink.com 1.10,2013-07-22 14:34:00,
2013-07-22 10:49:00,67.6,66.0,29.99,ESE,120,0.0,3.0,94,0.00,,,0.00,weatherlink.com 1.10,2013-07-22 14:49:00,
2013-07-22 11:04:00,67.8,66.0,30.00,ENE,70,0.0,2.0,94,0.00,,,0.00,weatherlink.com 1.10,2013-07-22 15:04:00,
2013-07-22 11:19:00,67.5,66.0,29.99,ENE,67,0.0,1.0,94,0.00,,,0.00,weatherlink.com 1.10,2013-07-22 15:19:00,
2013-07-22 11:34:00,67.8,66.0,29.99,NE,34,0.0,2.0,95,0.00,,,0.00,weatherlink.com 1.10,2013-07-22 15:34:00,
2013-07-22 11:49:00,69.1,67.0,29.99,West,279,0.0,4.0,93,0.00,,,0.00,weatherlink.com 1.10,2013-07-22 15:49:00,
2013-07-22 12:04:00,69.1,67.0,29.99,East,97,0.0,5.0,92,0.00,,,0.00,weatherlink.com 1.10,2013-07-22 16:04:00,
2013-07-22 12:19:00,70.7,67.0,29.98,West,278,0.0,4.0,89,0.00,,,0.00,weatherlink.com 1.10,2013-07-22 16:19:00,
2013-07-22 12:34:00,71.8,68.0,29.97,WSW,250,0.0,4.0,88,0.00,,,0.00,weatherlink.com 1.10,2013-07-22 16:34:00,
2013-07-22 12:50:00,74.0,69.0,29.97,ENE,62,1.0,4.0,84,0.00,,,0.00,weatherlink.com 1.10,2013-07-22 16:50:00,
2013-07-22 13:05:00,75.4,68.0,29.96,SSE,151,0.0,5.0,78,0.00,,,0.00,weatherlink.com 1.10,2013-07-22 17:05:00,
2013-07-22 13:20:00,75.0,68.0,29.95,ESE,123,1.0,3.0,79,0.00,,,0.00,weatherlink.com 1.10,2013-07-22 17:20:00,
2013-07-22 13:35:00,75.1,68.0,29.95,NNW,343,3.0,4.0,79,0.00,,,0.00,weatherlink.com 1.10,2013-07-22 17:35:00,
2013-07-22 13:50:00,76.7,69.0,29.95,SW,217,1.0,4.0,78,0.00,,,0.00,weatherlink.com 1.10,2013-07-22 17:50:00,
2013-07-22 14:05:00,76.6,69.0,29.94,East,96,2.0,5.0,76,0.00,,,0.00,weatherlink.com 1.10,2013-07-22 18:05:00,
2013-07-22 14:20:00,77.7,69.0,29.94,ENE,78,0.0,5.0,75,0.00,,,0.00,weatherlink.com 1.10,2013-07-22 18:20:00,
2013-07-22 14:35:00,78.2,69.0,29.94,SE,137,0.0,5.0,74,0.00,,,0.00,weatherlink.com 1.10,2013-07-22 18:35:00,
2013-07-22 14:50:00,78.2,69.0,29.93,East,84,0.0,3.0,73,0.00,,,0.00,weatherlink.com 1.10,2013-07-22 18:50:00,
2013-07-22 15:05:00,77.4,69.0,29.93,SE,130,1.0,6.0,74,0.00,,,0.00,weatherlink.com 1.10,2013-07-22 19:05:00,
2013-07-22 15:20:00,78.4,69.0,29.92,East,99,1.0,3.0,72,0.00,,,0.00,weatherlink.com 1.10,2013-07-22 19:20:00,
2013-07-22 16:20:00,79.5,70.0,29.91,East,89,3.0,5.0,73,0.00,,,0.00,weatherlink.com 1.10,2013-07-22 20:20:00,
2013-07-22 16:35:00,77.5,69.0,29.91,ESE,119,2.0,5.0,74,0.00,,,0.00,weatherlink.com 1.10,2013-07-22 20:35:00,
2013-07-22 16:50:00,77.4,70.0,29.90,ESE,114,1.0,5.0,77,0.00,,,0.00,weatherlink.com 1.10,2013-07-22 20:50:00,
2013-07-22 17:05:00,78.5,70.0,29.90,NNW,340,1.0,3.0,76,0.00,,,0.00,weatherlink.com 1.10,2013-07-22 21:05:00,
2013-07-22 17:20:00,78.2,70.0,29.90,East,81,2.0,6.0,75,0.00,,,0.00,weatherlink.com 1.10,2013-07-22 21:20:00,
2013-07-22 17:35:00,76.9,70.0,29.89,East,86,3.0,8.0,79,0.00,,,0.00,weatherlink.com 1.10,2013-07-22 21:35:00,
2013-07-22 17:50:00,77.4,70.0,29.89,East,95,4.0,6.0,78,0.00,,,0.00,weatherlink.com 1.10,2013-07-22 21:50:00,
2013-07-22 18:05:00,75.2,69.0,29.88,ENE,68,2.0,9.0,81,0.00,,,0.00,weatherlink.com 1.10,2013-07-22 22:05:00,
2013-07-22 18:20:00,74.9,69.0,29.89,ENE,77,2.0,5.0,83,0.00,,,0.00,weatherlink.com 1.10,2013-07-22 22:20:00,
2013-07-22 18:35:00,74.5,69.0,29.89,East,82,0.0,7.0,83,0.00,,,0.00,weatherlink.com 1.10,2013-07-22 22:35:00,
2013-07-22 18:50:00,74.2,69.0,29.89,ESE,111,2.0,4.0,84,0.00,,,0.00,weatherlink.com 1.10,2013-07-22 22:50:00,
2013-07-22 19:05:00,73.4,69.0,29.89,South,170,0.0,7.0,85,0.00,,,0.00,weatherlink.com 1.10,2013-07-22 23:05:00,
2013-07-22 19:20:00,72.5,68.0,29.89,SE,146,1.0,8.0,86,0.00,,,0.00,weatherlink.com 1.10,2013-07-22 23:20:00,
2013-07-22 19:50:00,71.4,67.0,29.89,East,95,3.0,4.0,87,0.00,,,0.00,weatherlink.com 1.10,2013-07-22 23:50:00,
2013-07-22 20:05:00,70.7,67.0,29.89,ENE,77,0.0,4.0,87,0.00,,,0.00,weatherlink.com 1.10,2013-07-23 00:05:00,
2013-07-22 20:20:00,70.1,67.0,29.89,SE,124,0.0,2.0,88,0.00,,,0.00,weatherlink.com 1.10,2013-07-23 00:20:00,
2013-07-22 20:35:00,69.6,66.0,29.89,South,173,0.0,1.0,89,0.00,,,0.00,weatherlink.com 1.10,2013-07-23 00:35:00,
2013-07-22 20:50:00,69.1,66.0,29.89,East,101,0.0,2.0,90,0.00,,,0.00,weatherlink.com 1.10,2013-07-23 00:50:00,
2013-07-22 21:05:00,68.7,66.0,29.89,ENE,66,0.0,1.0,90,0.00,,,0.00,weatherlink.com 1.10,2013-07-23 01:05:00,
2013-07-22 21:20:00,68.5,66.0,29.90,SSE,156,0.0,0.0,90,0.00,,,0.00,weatherlink.com 1.10,2013-07-23 01:20:00,
2013-07-22 21:35:00,68.3,66.0,29.89,NNE,31,0.0,0.0,91,0.00,,,0.00,weatherlink.com 1.10,2013-07-23 01:35:00,
2013-07-22 21:50:00,68.1,65.0,29.89,SSE,156,0.0,3.0,91,0.00,,,0.00,weatherlink.com 1.10,2013-07-23 01:50:00,
2013-07-22 22:05:00,67.8,65.0,29.89,NW,326,0.0,3.0,91,0.00,,,0.00,weatherlink.com 1.10,2013-07-23 02:05:00,
2013-07-22 22:20:00,67.5,65.0,29.88,East,94,0.0,4.0,92,0.00,,,0.00,weatherlink.com 1.10,2013-07-23 02:20:00,
2013-07-22 22:35:00,67.3,65.0,29.88,SE,137,1.0,2.0,92,0.00,,,0.00,weatherlink.com 1.10,2013-07-23 02:35:00,
2013-07-22 22:50:00,67.1,65.0,29.88,SE,142,2.0,2.0,93,0.00,,,0.00,weatherlink.com 1.10,2013-07-23 02:50:00,
2013-07-22 23:05:00,66.7,65.0,29.88,South,188,1.0,1.0,93,0.00,,,0.00,weatherlink.com 1.10,2013-07-23 03:05:00,
2013-07-22 23:20:00,66.5,65.0,29.88,ESE,122,0.0,1.0,94,0.00,,,0.00,weatherlink.com 1.10,2013-07-23 03:20:00,
2013-07-22 23:35:00,66.3,65.0,29.87,SW,219,0.0,1.0,94,0.00,,,0.00,weatherlink.com 1.10,2013-07-23 03:35:00,
2013-07-22 23:51:00,66.0,65.0,29.86,SSW,194,1.0,1.0,95,0.00,,,0.00,weatherlink.com 1.10,2013-07-23 03:51:00,